FW4789 Weather Reports


Display with metric or nautical units.
time (UTC)temp
F
wind
direction
speed
MPH
gust
MPH
rain 1hr
in
rain 24hr
in
rain mn
in
humidity
%
barometer
mb
20210923034424 55 0 0.0 1.0 0.00 0.03 0.03 96 1019.5
20210923033917 55 20 0.0 0.0 0.00 0.03 0.03 96 1019.5
20210923033412 55 22 0.0 0.0 0.00 0.03 0.03 96 1019.4
20210923032906 55 19 0.0 0.0 0.00 0.03 0.03 96 1019.4
20210923032402 55 20 0.0 0.0 0.00 0.03 0.03 95 1019.5
20210923031854 55 22 0.0 0.0 0.00 0.03 0.03 95 1019.4
20210923031347 55 16 0.0 0.0 0.00 0.03 0.03 95 1019.5
20210923030842 55 0 0.0 0.0 0.00 0.03 0.03 95 1019.5
20210923030335 55 0 0.0 0.0 0.00 0.03 0.03 95 1019.5
20210923025829 55 17 0.0 2.0 0.00 0.03 0.03 95 1019.5
20210923025324 55 0 0.0 2.0 0.00 0.03 0.03 95 1019.4
20210923024819 56 0 0.0 0.0 0.00 0.03 0.03 95 1019.4
20210923024312 56 0 0.0 0.0 0.00 0.03 0.03 95 1019.4
20210923023806 56 0 0.0 0.0 0.00 0.03 0.03 95 1019.4
20210923023301 56 0 0.0 0.0 0.00 0.03 0.03 95 1019.4
20210923022757 56 242 0.0 0.0 0.00 0.03 0.03 95 1019.3
20210923022247 56 242 0.0 0.0 0.00 0.03 0.03 95 1019.2
20210923021742 56 240 0.0 0.0 0.00 0.03 0.03 95 1019.2
20210923021235 56 238 0.0 0.0 0.00 0.03 0.03 95 1019.1
20210923020730 56 236 0.0 0.0 0.00 0.03 0.03 95 1019.1
20210923020224 57 227 0.0 0.0 0.00 0.03 0.03 95 1019.2
20210923015719 57 207 0.0 0.0 0.00 0.03 0.03 95 1019.2
20210923015212 57 194 0.0 0.0 0.00 0.03 0.03 95 1019.1
20210923014707 57 107 0.0 0.0 0.00 0.03 0.03 94 1019.1
20210923014201 57 105 0.0 1.0 0.00 0.03 0.03 95 1019.1
20210923013654 57 96 0.0 1.0 0.00 0.03 0.03 94 1019.1
20210923013148 57 19 0.0 1.0 0.00 0.03 0.03 94 1019.0
20210923012641 58 0 0.0 1.0 0.00 0.03 0.03 94 1018.9
20210923012137 58 355 0.0 1.0 0.00 0.03 0.03 94 1018.8
20210923011634 58 266 0.0 0.0 0.00 0.03 0.03 94 1018.7
20210923011137 58 266 0.0 0.0 0.00 0.03 0.03 94 1018.7
20210923010635 58 266 0.0 0.0 0.00 0.03 0.03 94 1018.7
20210923010133 58 266 0.0 0.0 0.00 0.03 0.03 93 1018.7
20210923005632 58 266 0.0 0.0 0.00 0.03 0.03 93 1018.5
20210923005132 59 265 0.0 0.0 0.00 0.03 0.03 93 1018.6
20210923004631 59 265 0.0 0.0 0.00 0.03 0.03 92 1018.5
20210923004135 59 265 0.0 0.0 0.00 0.03 0.03 93 1018.5
20210923003631 59 289 0.0 0.0 0.00 0.03 0.03 92 1018.3
20210923003127 59 289 0.0 0.0 0.00 0.03 0.03 92 1018.3
20210923002628 59 298 0.0 0.0 0.00 0.03 0.03 92 1018.2
20210923002128 60 299 0.0 0.0 0.00 0.03 0.03 91 1018.2
20210923001629 60 302 0.0 4.0 0.00 0.03 0.03 91 1018.1
20210923001129 60 0 0.0 4.0 0.00 0.03 0.03 90 1018.1
20210923000629 60 159 0.0 2.0 0.00 0.03 0.03 90 1018.0
20210923000128 61 246 0.0 1.0 0.00 0.03 0.03 89 1018.0
20210922235629 61 280 0.0 1.0 0.00 0.03 0.03 89 1018.0
20210922235127 61 0 0.0 1.0 0.00 0.03 0.03 88 1017.9
20210922234630 62 0 0.0 0.0 0.00 0.03 0.03 87 1017.9
20210922234131 62 0 0.0 2.0 0.00 0.03 0.03 85 1017.9
20210922233630 63 0 1.0 3.0 0.00 0.03 0.03 84 1017.8
20210922233131 64 306 0.0 4.0 0.00 0.03 0.03 82 1017.8
20210922232625 64 355 0.0 4.0 0.00 0.03 0.03 83 1017.8
20210922232118 65 322 1.0 5.0 0.00 0.03 0.03 80 1017.7
20210922231614 65 194 1.0 5.0 0.00 0.03 0.03 78 1017.8
20210922231107 66 0 2.0 6.0 0.00 0.03 0.03 77 1017.7
20210922230604 66 336 1.0 6.0 0.00 0.03 0.03 76 1017.9
20210922230056 66 312 1.0 5.0 0.00 0.03 0.03 75 1017.9
20210922225548 67 346 1.0 5.0 0.00 0.03 0.03 75 1018.0
20210922225041 67 71 1.0 4.0 0.00 0.03 0.03 74 1017.8
20210922224535 68 23 2.0 8.0 0.00 0.03 0.03 74 1017.8
20210922224029 68 307 3.0 11.0 0.00 0.03 0.03 70 1017.7
20210922223523 69 306 3.0 11.0 0.00 0.03 0.03 67 1017.7
20210922223020 69 287 3.0 9.0 0.00 0.03 0.03 67 1017.8
20210922222509 69 57 3.0 8.0 0.00 0.03 0.03 66 1017.6
20210922222002 69 33 3.0 13.0 0.00 0.03 0.03 68 1017.7
20210922221456 70 288 4.0 13.0 0.00 0.03 0.03 66 1017.7
20210922220951 70 292 4.0 12.0 0.00 0.03 0.03 66 1017.5
20210922220446 70 277 3.0 12.0 0.00 0.03 0.03 66 1017.6
20210922215938 70 248 3.0 10.0 0.00 0.03 0.03 68 1017.7
20210922215433 70 288 3.0 10.0 0.00 0.03 0.03 64 1017.6
20210922214929 70 350 3.0 9.0 0.00 0.03 0.03 67 1017.7
20210922214428 69 294 4.0 9.0 0.00 0.03 0.03 67 1017.5
20210922213927 69 327 3.0 17.0 0.00 0.03 0.03 67 1017.6
20210922213427 71 245 3.0 17.0 0.00 0.03 0.03 64 1017.6
20210922212928 72 0 3.0 10.0 0.00 0.03 0.03 68 1017.6
20210922212427 72 0 4.0 13.0 0.00 0.03 0.03 68 1017.6
20210922211927 71 15 5.0 15.0 0.00 0.03 0.03 65 1017.6
20210922211427 71 73 5.0 15.0 0.00 0.03 0.03 66 1017.6
20210922210927 71 278 5.0 14.0 0.00 0.03 0.03 65 1017.6
20210922210427 71 342 4.0 10.0 0.00 0.03 0.03 65 1017.7
20210922205929 71 203 4.0 11.0 0.00 0.03 0.03 68 1017.6
20210922205424 71 5 4.0 12.0 0.00 0.03 0.03 68 1017.8
20210922204922 71 329 4.0 12.0 0.00 0.03 0.03 65 1017.8
20210922204423 72 346 5.0 12.0 0.00 0.03 0.03 65 1017.8
20210922203921 72 0 4.0 11.0 0.00 0.03 0.03 65 1017.9
20210922203421 72 87 3.0 11.0 0.00 0.03 0.03 68 1017.9
20210922202923 72 100 4.0 10.0 0.00 0.03 0.03 67 1018.1
20210922202422 72 322 4.0 12.0 0.00 0.07 0.03 68 1018.1
20210922201916 70 314 4.0 13.0 0.00 0.20 0.03 69 1018.2
20210922201417 69 303 4.0 13.0 0.00 0.36 0.03 68 1018.2
20210922200917 69 326 4.0 12.0 0.00 0.43 0.03 68 1018.2
20210922200415 71 280 4.0 13.0 0.00 0.43 0.03 68 1018.2
20210922195916 70 334 4.0 13.0 0.00 0.43 0.03 69 1018.2
20210922195417 69 297 4.0 18.0 0.00 0.43 0.03 69 1018.3
20210922194919 69 298 5.0 18.0 0.00 0.43 0.03 68 1018.4
20210922194416 70 36 4.0 17.0 0.00 0.43 0.03 67 1018.4
20210922193917 71 280 4.0 14.0 0.00 0.43 0.03 71 1018.5
20210922193414 70 344 4.0 14.0 0.00 0.43 0.03 72 1018.5
20210922192916 70 279 4.0 14.0 0.00 0.43 0.03 72 1018.5
20210922192415 69 217 5.0 14.0 0.00 0.43 0.03 72 1018.5
20210922191915 69 355 4.0 12.0 0.00 0.43 0.03 74 1018.7
20210922191415 69 28 4.0 12.0 0.00 0.43 0.03 74 1018.6
20210922190914 69 225 4.0 12.0 0.00 0.43 0.03 72 1018.6
20210922190415 70 37 4.0 11.0 0.00 0.43 0.03 71 1018.6
20210922185911 69 322 4.0 12.0 0.00 0.43 0.03 73 1018.7
20210922185410 69 328 4.0 15.0 0.00 0.43 0.03 70 1018.8
20210922184909 71 333 4.0 15.0 0.00 0.43 0.03 70 1018.7
20210922184409 71 319 4.0 13.0 0.00 0.43 0.03 65 1018.7
20210922183908 70 22 5.0 13.0 0.00 0.43 0.03 68 1018.7
20210922183408 70 286 4.0 12.0 0.00 0.43 0.03 69 1018.7
20210922182909 69 272 3.0 12.0 0.00 0.43 0.03 73 1018.7
20210922182409 71 304 3.0 13.0 0.00 0.43 0.03 77 1018.8
20210922181911 70 278 4.0 14.0 0.00 0.43 0.03 72 1018.7
20210922181405 71 271 5.0 14.0 0.00 0.43 0.03 72 1018.7
20210922180905 71 303 4.0 10.0 0.00 0.43 0.03 71 1018.7
20210922180406 71 303 3.0 9.0 0.00 0.43 0.03 75 1018.7
20210922175904 71 305 3.0 8.0 0.00 0.43 0.03 72 1018.6
20210922175406 72 236 3.0 8.0 0.00 0.43 0.03 72 1018.6
20210922174906 70 24 3.0 12.0 0.00 0.43 0.03 78 1018.7
20210922174407 69 34 3.0 12.0 0.00 0.43 0.03 77 1018.8
20210922173904 68 60 3.0 8.0 0.00 0.43 0.03 78 1018.9
20210922173406 69 355 3.0 10.0 0.00 0.43 0.03 77 1018.8
20210922172902 69 291 3.0 10.0 0.00 0.43 0.03 76 1018.9
20210922172403 69 178 4.0 10.0 0.00 0.43 0.03 79 1019.0
20210922171902 69 294 4.0 13.0 0.00 0.43 0.03 77 1019.0
20210922171400 69 33 3.0 13.0 0.00 0.43 0.03 79 1019.1
20210922170901 69 315 3.0 10.0 0.00 0.43 0.03 80 1019.1
20210922170400 69 11 3.0 10.0 0.00 0.43 0.03 77 1019.0
20210922165859 68 314 3.0 9.0 0.00 0.43 0.03 80 1019.0
20210922165353 67 5 4.0 11.0 0.00 0.43 0.03 80 1018.9
20210922164847 67 38 4.0 11.0 0.00 0.43 0.03 82 1019.0
20210922164341 66 342 3.0 10.0 0.00 0.43 0.03 80 1019.0
20210922163834 66 355 4.0 11.0 0.00 0.43 0.03 81 1019.1
20210922163330 67 315 4.0 11.0 0.00 0.43 0.03 81 1019.1
20210922162823 66 269 4.0 10.0 0.00 0.43 0.03 81 1019.1
20210922162316 66 321 4.0 18.0 0.00 0.43 0.03 82 1019.3
20210922161811 65 351 5.0 18.0 0.00 0.43 0.03 81 1019.2
20210922161305 65 49 4.0 13.0 0.00 0.43 0.03 83 1019.3
20210922160800 65 297 3.0 13.0 0.00 0.43 0.03 83 1019.4
20210922160253 64 309 3.0 7.0 0.00 0.43 0.03 87 1019.4
20210922155749 64 53 3.0 13.0 0.00 0.43 0.03 85 1019.4
20210922155241 64 355 4.0 13.0 0.00 0.43 0.03 85 1019.4
20210922154735 64 348 6.0 16.0 0.00 0.43 0.03 83 1019.4
20210922154230 65 271 5.0 16.0 0.00 0.43 0.03 84 1019.3
20210922153723 65 350 5.0 15.0 0.00 0.43 0.03 82 1019.5
20210922153218 65 0 4.0 15.0 0.00 0.43 0.03 85 1019.6
20210922152711 65 51 4.0 12.0 0.00 0.43 0.03 84 1019.3
20210922152206 65 342 4.0 12.0 0.00 0.43 0.03 85 1019.3
20210922151700 64 295 4.0 14.0 0.00 0.43 0.03 85 1019.2
20210922151154 65 51 4.0 14.0 0.00 0.43 0.03 85 1019.2
20210922150648 65 307 5.0 17.0 0.00 0.43 0.03 86 1019.3
20210922150142 65 260 5.0 17.0 0.00 0.43 0.03 84 1019.3
20210922145636 66 336 4.0 12.0 0.00 0.43 0.03 84 1019.4
20210922145130 65 60 4.0 12.0 0.00 0.43 0.03 87 1019.3
20210922144622 65 332 4.0 12.0 0.00 0.43 0.03 88 1019.2
20210922144120 64 267 4.0 15.0 0.00 0.43 0.03 88 1019.1
20210922143620 63 0 5.0 15.0 0.00 0.43 0.03 89 1019.1
20210922143119 63 51 5.0 17.0 0.00 0.43 0.03 88 1019.0
20210922142620 63 295 5.0 17.0 0.00 0.43 0.03 89 1019.1
20210922142120 63 333 5.0 15.0 0.00 0.43 0.03 90 1019.0
20210922141621 63 9 4.0 15.0 0.00 0.43 0.03 90 1018.9
20210922141119 63 109 3.0 12.0 0.00 0.43 0.03 90 1018.8
20210922140622 63 0 4.0 12.0 0.00 0.44 0.03 92 1018.9
20210922140118 62 277 4.0 11.0 0.00 0.44 0.03 92 1018.9
20210922135618 62 319 3.0 11.0 0.01 0.44 0.03 92 1018.8
20210922135117 62 256 3.0 15.0 0.01 0.44 0.03 92 1018.6
20210922134620 62 302 3.0 15.0 0.01 0.44 0.03 93 1018.6
20210922134117 62 0 3.0 11.0 0.01 0.45 0.03 93 1018.6
20210922133617 62 299 3.0 9.0 0.01 0.45 0.03 94 1018.6
20210922133121 62 0 2.0 10.0 0.01 0.45 0.03 94 1018.5
20210922132618 62 0 3.0 10.0 0.01 0.45 0.03 94 1018.4
20210922132118 62 340 3.0 8.0 0.01 0.45 0.03 95 1018.3
20210922131617 62 321 3.0 7.0 0.01 0.45 0.03 95 1018.4
20210922131118 62 0 3.0 10.0 0.01 0.45 0.03 95 1018.3
20210922130618 62 351 3.0 10.0 0.01 0.45 0.03 95 1018.0
20210922130121 62 298 3.0 11.0 0.01 0.45 0.03 94 1018.0
20210922125614 62 0 3.0 11.0 0.00 0.44 0.02 95 1018.2
20210922125109 62 47 2.0 6.0 0.00 0.44 0.02 95 1018.4
20210922124603 62 0 3.0 10.0 0.00 0.46 0.02 95 1018.6
20210922124057 62 334 3.0 10.0 0.00 0.48 0.02 95 1018.5
20210922123552 63 36 2.0 9.0 0.00 0.49 0.02 95 1018.6
20210922123045 63 0 2.0 6.0 0.01 0.51 0.02 95 1018.8
20210922122539 63 342 2.0 9.0 0.01 0.52 0.02 95 1018.5
20210922122032 63 13 3.0 9.0 0.01 0.53 0.02 95 1018.4
20210922121528 63 0 3.0 10.0 0.01 0.54 0.02 95 1018.2
20210922121021 63 0 3.0 10.0 0.01 0.55 0.02 95 1017.5
20210922120515 63 17 3.0 10.0 0.01 0.57 0.02 95 1017.4
20210922120010 63 0 3.0 9.0 0.01 0.61 0.02 95 1017.5
20210922115503 63 0 3.0 9.0 0.01 0.61 0.02 95 1017.7
20210922114958 63 0 3.0 10.0 0.01 0.62 0.02 95 1017.5
20210922114451 64 0 3.0 10.0 0.01 0.65 0.02 95 1017.9
20210922113943 64 0 3.0 6.0 0.02 0.69 0.02 95 1018.0
20210922113436 64 0 2.0 9.0 0.01 0.75 0.01 95 1018.0
20210922112932 64 0 3.0 10.0 0.01 0.85 0.01 95 1018.2
20210922112425 64 232 3.0 10.0 0.01 0.91 0.01 95 1018.0
20210922111918 64 0 3.0 16.0 0.01 0.91 0.01 95 1017.9
20210922111414 64 124 4.0 16.0 0.01 0.91 0.01 95 1017.5
20210922110907 65 0 4.0 13.0 0.01 0.91 0.01 95 1017.5
20210922110402 65 0 4.0 13.0 0.01 0.91 0.01 95 1017.3
20210922105856 65 0 3.0 12.0 0.01 0.91 0.01 95 1017.3
20210922105349 66 0 4.0 13.0 0.01 0.91 0.01 95 1017.2
20210922104844 66 333 4.0 13.0 0.01 0.91 0.01 95 1017.1
20210922104337 67 0 4.0 10.0 0.01 0.91 0.01 95 1016.9
20210922103831 67 0 3.0 10.0 0.00 0.90 0.00 95 1016.6
20210922103325 68 0 3.0 10.0 0.00 0.90 0.00 95 1016.4
20210922102819 68 300 3.0 10.0 0.00 0.90 0.00 95 1016.2
20210922102312 68 10 3.0 10.0 0.00 0.90 0.00 95 1016.1
20210922101807 68 342 2.0 10.0 0.00 0.90 0.00 95 1015.9
20210922101301 68 0 4.0 10.0 0.00 0.90 0.00 95 1016.0
20210922100754 69 0 3.0 10.0 0.00 0.90 0.00 95 1016.0
20210922100248 69 326 3.0 8.0 0.00 0.90 0.00 95 1016.0
20210922095742 69 254 4.0 15.0 0.00 0.90 0.00 95 1016.0
20210922095236 69 246 4.0 15.0 0.00 0.90 0.00 95 1015.8
20210922094730 70 266 4.0 12.0 0.00 0.90 0.00 96 1015.8
20210922094224 70 0 3.0 12.0 0.00 0.90 0.00 96 1015.6
20210922093720 70 308 3.0 9.0 0.00 0.90 0.00 96 1015.5
20210922093213 71 24 2.0 10.0 0.00 0.90 0.00 97 1015.4
20210922092707 71 264 0.0 10.0 0.00 0.90 0.00 97 1015.3
20210922092200 71 315 0.0 2.0 0.00 0.90 0.00 97 1015.2
20210922091655 71 277 0.0 1.0 0.00 0.90 0.00 97 1015.2
20210922091148 71 281 0.0 2.0 0.00 0.90 0.00 97 1015.2
20210922090643 71 232 0.0 2.0 0.00 0.90 0.00 97 1015.1
20210922090136 71 273 0.0 2.0 0.00 0.90 0.00 97 1015.0
20210922085634 71 273 0.0 3.0 0.00 0.90 0.00 97 1015.1
20210922085134 71 265 1.0 8.0 0.00 0.90 0.00 97 1015.1
20210922084632 71 280 1.0 8.0 0.00 0.90 0.00 97 1015.0
20210922084131 71 327 1.0 3.0 0.00 0.90 0.00 97 1015.0
20210922083630 71 342 0.0 4.0 0.00 0.90 0.00 97 1015.1
20210922083129 71 273 0.0 4.0 0.00 0.91 0.00 97 1015.2
20210922082629 71 275 0.0 2.0 0.00 0.91 0.00 97 1015.2
20210922082128 71 5 0.0 2.0 0.00 0.91 0.00 97 1015.1
20210922081630 71 299 0.0 2.0 0.00 0.91 0.00 97 1015.1
20210922081129 71 280 1.0 3.0 0.00 0.91 0.00 97 1015.3
20210922080630 71 294 1.0 3.0 0.00 0.91 0.00 97 1015.3
20210922080129 71 282 0.0 2.0 0.00 0.91 0.00 97 1015.2
20210922075630 71 272 0.0 1.0 0.00 0.91 0.00 97 1015.2
20210922075128 71 300 1.0 4.0 0.00 0.91 0.00 97 1015.4
20210922074629 71 300 1.0 4.0 0.00 0.91 0.00 97 1015.4
20210922074128 71 267 0.0 2.0 0.00 0.91 0.00 97 1015.5
20210922073630 71 285 0.0 3.0 0.00 0.91 0.00 98 1015.5
20210922073128 71 252 1.0 3.0 0.00 0.91 0.00 98 1015.7
20210922072628 71 322 1.0 3.0 0.00 0.91 0.00 98 1015.8
20210922072132 71 296 1.0 6.0 0.00 0.91 0.00 97 1015.7
20210922071632 71 306 1.0 6.0 0.00 0.91 0.00 97 1015.6
20210922071131 71 340 1.0 4.0 0.00 0.91 0.00 98 1015.7
20210922070627 71 355 1.0 4.0 0.00 0.91 0.00 98 1015.7
20210922070120 71 236 1.0 4.0 0.00 0.91 0.00 98 1015.8
20210922065616 72 281 0.0 2.0 0.00 0.91 0.00 98 1015.7
20210922065109 71 119 0.0 2.0 0.00 0.91 0.00 98 1015.7
20210922064602 71 232 0.0 2.0 0.00 0.91 0.00 98 1015.9
20210922064057 71 274 1.0 3.0 0.00 0.91 0.00 98 1016.0
20210922063552 71 274 1.0 3.0 0.00 0.91 0.00 98 1015.9
20210922063045 71 269 1.0 4.0 0.00 0.91 0.00 98 1015.9
20210922062539 71 290 1.0 4.0 0.00 0.91 0.00 98 1015.7
20210922062032 71 269 1.0 4.0 0.00 0.91 0.00 98 1015.8
20210922061525 71 267 1.0 4.0 0.00 0.91 0.00 98 1015.9
20210922061019 71 265 1.0 4.0 0.00 0.91 0.00 98 1015.9
20210922060511 71 281 1.0 2.0 0.00 0.91 0.00 98 1016.0
20210922060008 71 280 1.0 3.0 0.00 0.91 0.00 98 1016.1
20210922055500 72 248 1.0 3.0 0.00 0.91 0.00 98 1016.1
20210922054954 71 263 0.0 2.0 0.00 0.91 0.00 97 1016.1
20210922054449 72 246 0.0 2.0 0.00 0.91 0.00 98 1016.2
20210922053944 72 306 0.0 1.0 0.00 0.91 0.00 98 1016.2
20210922053436 72 269 0.0 2.0 0.00 0.91 0.00 98 1016.2
20210922052929 71 270 1.0 4.0 0.00 0.91 0.00 98 1016.3
20210922052424 71 276 1.0 4.0 0.00 0.91 0.00 98 1016.5
20210922051918 71 244 0.0 2.0 0.00 0.91 0.00 97 1016.8
20210922051414 72 214 0.0 0.0 0.00 0.91 0.00 98 1016.8
20210922050906 71 214 0.0 0.0 0.00 0.91 0.00 97 1016.6
20210922050401 72 214 0.0 3.0 0.00 0.91 0.00 97 1016.6
20210922045854 72 214 1.0 3.0 0.00 0.91 0.91 98 1016.5
20210922045348 72 279 1.0 4.0 0.00 0.91 0.91 97 1016.4
20210922044841 71 248 0.0 4.0 0.00 0.91 0.91 97 1016.6
20210922044337 71 266 0.0 0.0 0.00 0.91 0.91 97 1016.5
20210922043829 72 266 0.0 0.0 0.00 0.91 0.91 97 1016.5
20210922043324 72 266 0.0 0.0 0.00 0.91 0.91 98 1016.5
20210922042817 72 169 0.0 0.0 0.00 0.92 0.91 97 1016.5
20210922042311 72 127 0.0 0.0 0.00 0.92 0.91 97 1016.5
20210922041807 72 286 0.0 1.0 0.00 0.92 0.91 97 1016.5
20210922041300 72 286 0.0 2.0 0.00 0.92 0.91 97 1016.5
20210922040754 72 286 0.0 3.0 0.00 0.92 0.91 97 1016.8
20210922040249 72 261 1.0 4.0 0.00 0.92 0.91 97 1016.6
20210922035744 72 275 0.0 4.0 0.00 0.92 0.91 97 1016.8
20210922035233 72 281 0.0 1.0 0.00 0.92 0.91 97 1016.9